User: anonymous   Login
Location: Unspecified
(0.0000°N, 0.0000°E)
Time: 09:41:41
(UTC+00:00)
Language:

SMOS - Orbit

View from above orbital plane
View from above orbital plane
View from above satellite
View from above satellite

Ground track
Ground track

The orbit data is extracted from the following two-line orbital elements,

1 36036U 09059A   14332.14111299  .00000505  00000-0  17517-3 0  5240
2 36036 098.4420 157.1048 0001137 083.5232 276.6086 14.39756232266504
Epoch (UTC): 28 November 2014 03:23:12
Eccentricity: 0.0001137
inclination: 98.4420°
perigee height: 758 km
apogee height: 760 km
right ascension of ascending node: 157.1048°
argument of perigee: 83.5232°
revolutions per day: 14.39756232
mean anomaly at epoch: 276.6086°
orbit number at epoch: 26650

The dashed part of the orbit path shows where the satellite is in the earth's shadow,  

DLR